Location: Goathead Hill Observatory
(46.4083°N, 105.8406°W)
Time: 14:53:47
(UTC-07:00)

ISS - Visible Passes

Search period start: 17 November 2018 00:00
Search period end: 27 November 2018 00:00
Orbit: 402 x 408 km, 51.6° (Epoch: 18 November)

Date Brightness Start Highest point End Pass type
(mag) Time Alt. Az. Time Alt. Az. Time Alt. Az.
23 Nov -0.7 19:06:47 10° SW 19:07:01 12° SW 19:07:01 12° SW visible
24 Nov -2.4 18:14:58 10° SSW 18:17:13 27° SSE 18:17:13 27° SSE visible
25 Nov -1.9 17:23:34 10° S 17:25:50 18° SE 17:27:19 14° ESE visible
25 Nov -1.3 18:58:43 10° WSW 19:00:00 22° WSW 19:00:00 22° WSW visible
26 Nov -3.9 18:06:33 10° SW 18:09:47 63° SSE 18:10:00 60° ESE visible
